Year,Month,Day,Hour,Minute,Value (Times are PST for temperature in C)
2010,09,22,00,00,7.30
2010,09,22,00,01,7.30
2010,09,22,00,02,7.30
2010,09,22,00,03,7.30
2010,09,22,00,04,7.30
2010,09,22,00,05,7.30
2010,09,22,00,06,7.30
2010,09,22,00,07,7.20
2010,09,22,00,08,7.30
2010,09,22,00,09,7.30
2010,09,22,00,10,7.30
2010,09,22,00,11,7.30
2010,09,22,00,12,7.40
2010,09,22,00,13,7.40
2010,09,22,00,14,7.50
2010,09,22,00,15,7.60
2010,09,22,00,16,7.60
2010,09,22,00,17,7.60
2010,09,22,00,18,7.60
2010,09,22,00,19,7.60
2010,09,22,00,20,7.60
2010,09,22,00,21,7.50
2010,09,22,00,22,7.50
2010,09,22,00,23,7.50
2010,09,22,00,24,7.40
2010,09,22,00,25,7.40
2010,09,22,00,26,7.40
2010,09,22,00,27,7.40
2010,09,22,00,28,7.50
2010,09,22,00,29,7.50
2010,09,22,00,30,7.60
2010,09,22,00,31,7.60
2010,09,22,00,32,7.60
2010,09,22,00,33,7.60
2010,09,22,00,34,7.70
2010,09,22,00,35,7.70
2010,09,22,00,36,7.70
2010,09,22,00,37,7.70
2010,09,22,00,38,7.70
2010,09,22,00,39,7.70
2010,09,22,00,40,7.70
2010,09,22,00,41,7.70
2010,09,22,00,42,7.70
2010,09,22,00,43,7.80
2010,09,22,00,44,7.80
2010,09,22,00,45,7.80
2010,09,22,00,46,7.90
2010,09,22,00,47,7.90
2010,09,22,00,48,8.00
2010,09,22,00,49,8.00
2010,09,22,00,50,8.10
2010,09,22,00,51,8.10
2010,09,22,00,52,8.10
2010,09,22,00,53,8.10
2010,09,22,00,54,8.20
2010,09,22,00,55,8.20
2010,09,22,00,56,8.30
2010,09,22,00,57,8.30
2010,09,22,00,58,8.40
2010,09,22,00,59,8.40
2010,09,22,01,00,8.40
2010,09,22,01,01,8.40
2010,09,22,01,02,8.40
2010,09,22,01,03,8.40
2010,09,22,01,04,8.40
2010,09,22,01,05,8.40
2010,09,22,01,06,8.40
2010,09,22,01,07,8.50
2010,09,22,01,08,8.50
2010,09,22,01,09,8.60
2010,09,22,01,10,8.60
2010,09,22,01,11,8.50
2010,09,22,01,12,8.60
2010,09,22,01,13,8.60
2010,09,22,01,14,8.60
2010,09,22,01,15,8.60
2010,09,22,01,16,8.60
2010,09,22,01,17,8.60
2010,09,22,01,18,8.70
2010,09,22,01,19,8.70
2010,09,22,01,20,8.70
2010,09,22,01,21,8.70
2010,09,22,01,22,8.70
2010,09,22,01,23,8.70
2010,09,22,01,24,8.70
2010,09,22,01,25,8.70
2010,09,22,01,26,8.70
2010,09,22,01,27,8.70
2010,09,22,01,28,8.70
2010,09,22,01,29,8.70
2010,09,22,01,30,8.70
2010,09,22,01,31,8.60
2010,09,22,01,32,8.60
2010,09,22,01,33,8.60
2010,09,22,01,34,8.60
2010,09,22,01,35,8.60
2010,09,22,01,36,8.60
2010,09,22,01,37,8.60
2010,09,22,01,38,8.60
2010,09,22,01,39,8.50
2010,09,22,01,40,8.50
2010,09,22,01,41,8.50
2010,09,22,01,42,8.40
2010,09,22,01,43,8.40
2010,09,22,01,44,8.40
2010,09,22,01,45,8.40
2010,09,22,01,46,8.40
2010,09,22,01,47,8.40
2010,09,22,01,48,8.40
2010,09,22,01,49,8.40
2010,09,22,01,50,8.30
2010,09,22,01,51,8.30
2010,09,22,01,52,8.30
2010,09,22,01,53,8.30
2010,09,22,01,54,8.30
2010,09,22,01,55,8.30
2010,09,22,01,56,8.20
2010,09,22,01,57,8.20
2010,09,22,01,58,8.20
2010,09,22,01,59,8.20
2010,09,22,02,00,8.30
2010,09,22,02,01,8.30
2010,09,22,02,02,8.30
2010,09,22,02,03,8.20
2010,09,22,02,04,8.20
2010,09,22,02,05,8.20
2010,09,22,02,06,8.20
2010,09,22,02,07,8.20
2010,09,22,02,08,8.20
2010,09,22,02,09,8.20
2010,09,22,02,10,8.20
2010,09,22,02,11,8.20
2010,09,22,02,12,8.10
2010,09,22,02,13,8.10
2010,09,22,02,14,8.10
2010,09,22,02,15,8.10
2010,09,22,02,16,8.00
2010,09,22,02,17,8.00
2010,09,22,02,18,8.00
2010,09,22,02,19,8.00
2010,09,22,02,20,8.00
2010,09,22,02,21,8.00
2010,09,22,02,22,7.90
2010,09,22,02,23,7.90
2010,09,22,02,24,7.90
2010,09,22,02,25,7.90
2010,09,22,02,26,7.90
2010,09,22,02,27,7.90
2010,09,22,02,28,7.90
2010,09,22,02,29,7.90
2010,09,22,02,30,7.90
2010,09,22,02,31,7.90
2010,09,22,02,32,7.90
2010,09,22,02,33,7.90
2010,09,22,02,34,7.90
2010,09,22,02,35,7.90
2010,09,22,02,36,7.90
2010,09,22,02,37,7.90
2010,09,22,02,38,7.90
2010,09,22,02,39,7.90
2010,09,22,02,40,7.90
2010,09,22,02,41,7.90
2010,09,22,02,42,7.90
2010,09,22,02,43,7.90
2010,09,22,02,44,7.90
2010,09,22,02,45,7.90
2010,09,22,02,46,7.90
2010,09,22,02,47,7.90
2010,09,22,02,48,7.90
2010,09,22,02,49,8.00
2010,09,22,02,50,8.00
2010,09,22,02,51,8.00
2010,09,22,02,52,8.00
2010,09,22,02,53,8.00
2010,09,22,02,54,8.00
2010,09,22,02,55,8.00
2010,09,22,02,56,8.00
2010,09,22,02,57,8.00
2010,09,22,02,58,8.00
2010,09,22,02,59,8.00
2010,09,22,03,00,8.00
2010,09,22,03,01,8.00
2010,09,22,03,02,8.00
2010,09,22,03,03,8.00
2010,09,22,03,04,8.00
2010,09,22,03,05,8.00
2010,09,22,03,06,8.00
2010,09,22,03,07,8.00
2010,09,22,03,08,8.00
2010,09,22,03,09,8.00
2010,09,22,03,10,8.10
2010,09,22,03,11,8.10
2010,09,22,03,12,8.00
2010,09,22,03,13,8.00
2010,09,22,03,14,8.00
2010,09,22,03,15,7.90
2010,09,22,03,16,7.90
2010,09,22,03,17,7.90
2010,09,22,03,18,7.90
2010,09,22,03,19,7.90
2010,09,22,03,20,7.90
2010,09,22,03,21,7.90
2010,09,22,03,22,7.90
2010,09,22,03,23,7.90
2010,09,22,03,24,7.90
2010,09,22,03,25,7.90
2010,09,22,03,26,7.90
2010,09,22,03,27,7.90
2010,09,22,03,28,7.90
2010,09,22,03,29,7.90
2010,09,22,03,30,7.90
2010,09,22,03,31,7.90
2010,09,22,03,32,7.90
2010,09,22,03,33,7.90
2010,09,22,03,34,7.90
2010,09,22,03,35,7.90
2010,09,22,03,36,7.90
2010,09,22,03,37,7.90
2010,09,22,03,38,7.90
2010,09,22,03,39,7.90
2010,09,22,03,40,7.90
2010,09,22,03,41,7.90
2010,09,22,03,42,7.90
2010,09,22,03,43,7.90
2010,09,22,03,44,7.90
2010,09,22,03,45,7.90
2010,09,22,03,46,7.90
2010,09,22,03,47,7.90
2010,09,22,03,48,7.90
2010,09,22,03,49,7.90
2010,09,22,03,50,7.90
2010,09,22,03,51,7.90
2010,09,22,03,52,7.90
2010,09,22,03,53,7.80
2010,09,22,03,54,7.80
2010,09,22,03,55,7.90
2010,09,22,03,56,7.90
2010,09,22,03,57,7.90
2010,09,22,03,58,7.90
2010,09,22,03,59,7.90
2010,09,22,04,00,7.90
2010,09,22,04,01,7.90
2010,09,22,04,02,7.90
2010,09,22,04,03,7.90
2010,09,22,04,04,7.90
2010,09,22,04,05,7.90
2010,09,22,04,06,7.90
2010,09,22,04,07,7.90
2010,09,22,04,08,7.90
2010,09,22,04,09,7.90
2010,09,22,04,10,7.90
2010,09,22,04,11,7.90
2010,09,22,04,12,7.90
2010,09,22,04,13,7.90
2010,09,22,04,14,7.90
2010,09,22,04,15,7.90
2010,09,22,04,16,7.90
2010,09,22,04,17,7.90
2010,09,22,04,18,7.90
2010,09,22,04,19,7.90
2010,09,22,04,20,7.90
2010,09,22,04,21,7.90
2010,09,22,04,22,7.90
2010,09,22,04,23,7.90
2010,09,22,04,24,7.90
2010,09,22,04,25,7.90
2010,09,22,04,26,7.80
2010,09,22,04,27,7.80
2010,09,22,04,28,7.80
2010,09,22,04,29,7.80
2010,09,22,04,30,7.80
2010,09,22,04,31,7.80
2010,09,22,04,32,7.80
2010,09,22,04,33,7.80
2010,09,22,04,34,7.80
2010,09,22,04,35,7.80
2010,09,22,04,36,7.80
2010,09,22,04,37,7.80
2010,09,22,04,38,7.80
2010,09,22,04,39,7.80
2010,09,22,04,40,7.90
2010,09,22,04,41,7.90
2010,09,22,04,42,7.90
2010,09,22,04,43,7.90
2010,09,22,04,44,7.90
2010,09,22,04,45,7.90
2010,09,22,04,46,7.90
2010,09,22,04,47,7.90
2010,09,22,04,48,7.90
2010,09,22,04,49,7.90
2010,09,22,04,50,7.90
2010,09,22,04,51,7.80
2010,09,22,04,52,7.80
2010,09,22,04,53,7.80
2010,09,22,04,54,7.80
2010,09,22,04,55,7.80
2010,09,22,04,56,7.80
2010,09,22,04,57,7.80
2010,09,22,04,58,7.80
2010,09,22,04,59,7.80
2010,09,22,05,00,7.80
2010,09,22,05,01,7.80
2010,09,22,05,02,7.80
2010,09,22,05,03,7.80
2010,09,22,05,04,7.80
2010,09,22,05,05,7.80
2010,09,22,05,06,7.80
2010,09,22,05,07,7.80
2010,09,22,05,08,7.80
2010,09,22,05,09,7.80
2010,09,22,05,10,7.80
2010,09,22,05,11,7.80
2010,09,22,05,12,7.80
2010,09,22,05,13,7.80
2010,09,22,05,14,7.80
2010,09,22,05,15,7.80
2010,09,22,05,16,7.80
2010,09,22,05,17,7.80
2010,09,22,05,18,7.80
2010,09,22,05,19,7.70
2010,09,22,05,20,7.70
2010,09,22,05,21,7.70
2010,09,22,05,22,7.70
2010,09,22,05,23,7.70
2010,09,22,05,24,7.70
2010,09,22,05,25,7.70
2010,09,22,05,26,7.70
2010,09,22,05,27,7.70
2010,09,22,05,28,7.70
2010,09,22,05,29,7.70
2010,09,22,05,30,7.70
2010,09,22,05,31,7.70
2010,09,22,05,32,7.70
2010,09,22,05,33,7.70
2010,09,22,05,34,7.70
2010,09,22,05,35,7.70
2010,09,22,05,36,7.70
2010,09,22,05,37,7.70
2010,09,22,05,38,7.70
2010,09,22,05,39,7.70
2010,09,22,05,40,7.70
2010,09,22,05,41,7.70
2010,09,22,05,42,7.70
2010,09,22,05,43,7.70
2010,09,22,05,44,7.70
2010,09,22,05,45,7.70
2010,09,22,05,46,7.70
2010,09,22,05,47,7.70
2010,09,22,05,48,7.70
2010,09,22,05,49,7.70
2010,09,22,05,50,7.70
2010,09,22,05,51,7.70
2010,09,22,05,52,7.70
2010,09,22,05,53,7.70
2010,09,22,05,54,7.70
2010,09,22,05,55,7.70
2010,09,22,05,56,7.70
2010,09,22,05,57,7.70
2010,09,22,05,58,7.70
2010,09,22,05,59,7.70
2010,09,22,06,00,7.70
2010,09,22,06,01,7.70
2010,09,22,06,02,7.70
2010,09,22,06,03,7.70
2010,09,22,06,04,7.70
2010,09,22,06,05,7.70
2010,09,22,06,06,7.70
2010,09,22,06,07,7.70
2010,09,22,06,08,7.70
2010,09,22,06,09,7.60
2010,09,22,06,10,7.60
2010,09,22,06,11,7.60
2010,09,22,06,12,7.60
2010,09,22,06,13,7.60
2010,09,22,06,14,7.60
2010,09,22,06,15,7.60
2010,09,22,06,16,7.60
2010,09,22,06,17,7.60
2010,09,22,06,18,7.60
2010,09,22,06,19,7.60
2010,09,22,06,20,7.60
2010,09,22,06,21,7.60
2010,09,22,06,22,7.60
2010,09,22,06,23,7.60
2010,09,22,06,24,7.60
2010,09,22,06,25,7.60
2010,09,22,06,26,7.60
2010,09,22,06,27,7.50
2010,09,22,06,28,7.50
2010,09,22,06,29,7.50
2010,09,22,06,30,7.40
2010,09,22,06,31,7.40
2010,09,22,06,32,7.40
2010,09,22,06,33,7.40
2010,09,22,06,34,7.40
2010,09,22,06,35,7.40
2010,09,22,06,36,7.40
2010,09,22,06,37,7.40
2010,09,22,06,38,7.40
2010,09,22,06,39,7.40
2010,09,22,06,40,7.40
2010,09,22,06,41,7.40
2010,09,22,06,42,7.40
2010,09,22,06,43,7.40
2010,09,22,06,44,7.40
2010,09,22,06,45,7.40
2010,09,22,06,46,7.40
2010,09,22,06,47,7.40
2010,09,22,06,48,7.40
2010,09,22,06,49,7.40
2010,09,22,06,50,7.30
2010,09,22,06,51,7.30
2010,09,22,06,52,7.30
2010,09,22,06,53,7.30
2010,09,22,06,54,7.30
2010,09,22,06,55,7.30
2010,09,22,06,56,7.30
2010,09,22,06,57,7.30
2010,09,22,06,58,7.30
2010,09,22,06,59,7.30
2010,09,22,07,00,7.30
2010,09,22,07,01,7.20
2010,09,22,07,02,7.20
2010,09,22,07,03,7.20
2010,09,22,07,04,7.20
2010,09,22,07,05,7.20
2010,09,22,07,06,7.20
2010,09,22,07,07,7.20
2010,09,22,07,08,7.20
2010,09,22,07,09,7.20
2010,09,22,07,10,7.20
2010,09,22,07,11,7.20
2010,09,22,07,12,7.20
2010,09,22,07,13,7.20
2010,09,22,07,14,7.30
2010,09,22,07,15,7.30
2010,09,22,07,16,7.30
2010,09,22,07,17,7.30
2010,09,22,07,18,7.30
2010,09,22,07,19,7.30
2010,09,22,07,20,7.30
2010,09,22,07,21,7.40
2010,09,22,07,22,7.40
2010,09,22,07,23,7.50
2010,09,22,07,24,7.50
2010,09,22,07,25,7.50
2010,09,22,07,26,7.60
2010,09,22,07,27,7.60
2010,09,22,07,28,7.60
2010,09,22,07,29,7.60
2010,09,22,07,30,7.70
2010,09,22,07,31,7.70
2010,09,22,07,32,7.70
2010,09,22,07,33,7.70
2010,09,22,07,34,7.70
2010,09,22,07,35,7.80
2010,09,22,07,36,7.80
2010,09,22,07,37,7.80
2010,09,22,07,38,7.80
2010,09,22,07,39,7.80
2010,09,22,07,40,7.90
2010,09,22,07,41,7.90
2010,09,22,07,42,7.90
2010,09,22,07,43,7.90
2010,09,22,07,44,8.00
2010,09,22,07,45,8.00
2010,09,22,07,46,8.00
2010,09,22,07,47,8.00
2010,09,22,07,48,8.10
2010,09,22,07,49,8.10
2010,09,22,07,50,8.10
2010,09,22,07,51,8.10
2010,09,22,07,52,8.10
2010,09,22,07,53,8.10
2010,09,22,07,54,8.20
2010,09,22,07,55,8.20
2010,09,22,07,56,8.20
2010,09,22,07,57,8.20
2010,09,22,07,58,8.20
2010,09,22,07,59,8.20
2010,09,22,08,00,8.30
2010,09,22,08,01,8.30
2010,09,22,08,02,8.30
2010,09,22,08,03,8.30
2010,09,22,08,04,8.30
2010,09,22,08,05,8.40
2010,09,22,08,06,8.40
2010,09,22,08,07,8.40
2010,09,22,08,08,8.50
2010,09,22,08,09,8.50
2010,09,22,08,10,8.50
2010,09,22,08,11,8.60
2010,09,22,08,12,8.60
2010,09,22,08,13,8.60
2010,09,22,08,14,8.60
2010,09,22,08,15,8.70
2010,09,22,08,16,8.70
2010,09,22,08,17,8.70
2010,09,22,08,18,8.70
2010,09,22,08,19,8.70
2010,09,22,08,20,8.80
2010,09,22,08,21,8.80
2010,09,22,08,22,8.80
2010,09,22,08,23,8.80
2010,09,22,08,24,8.80
2010,09,22,08,25,8.80
2010,09,22,08,26,8.80
2010,09,22,08,27,8.80
2010,09,22,08,28,8.80
2010,09,22,08,29,8.80
2010,09,22,08,30,8.80
2010,09,22,08,31,8.80
2010,09,22,08,32,8.80
2010,09,22,08,33,8.80
2010,09,22,08,34,8.80
2010,09,22,08,35,8.80
2010,09,22,08,36,8.80
2010,09,22,08,37,8.90
2010,09,22,08,38,8.90
2010,09,22,08,39,8.90
2010,09,22,08,40,8.90
2010,09,22,08,41,8.90
2010,09,22,08,42,8.90
2010,09,22,08,43,8.90
2010,09,22,08,44,8.90
2010,09,22,08,45,8.90
2010,09,22,08,46,8.90
2010,09,22,08,47,8.90
2010,09,22,08,48,8.90
2010,09,22,08,49,9.00
2010,09,22,08,50,9.00
2010,09,22,08,51,9.00
2010,09,22,08,52,9.10
2010,09,22,08,53,9.10
2010,09,22,08,54,9.10
2010,09,22,08,55,9.20
2010,09,22,08,56,9.20
2010,09,22,08,57,9.20
2010,09,22,08,58,9.30
2010,09,22,08,59,9.30
2010,09,22,09,00,9.40
2010,09,22,09,01,9.40
2010,09,22,09,02,9.40
2010,09,22,09,03,9.50
2010,09,22,09,04,9.50
2010,09,22,09,05,9.60
2010,09,22,09,06,9.60
2010,09,22,09,07,9.60
2010,09,22,09,08,9.70
2010,09,22,09,09,9.80
2010,09,22,09,10,9.80
2010,09,22,09,11,9.90
2010,09,22,09,12,9.90
2010,09,22,09,13,10.00
2010,09,22,09,14,10.00
2010,09,22,09,15,10.00
2010,09,22,09,16,10.10
2010,09,22,09,17,10.10
2010,09,22,09,18,10.10
2010,09,22,09,19,10.10
2010,09,22,09,20,10.20
2010,09,22,09,21,10.20
2010,09,22,09,22,10.20
2010,09,22,09,23,10.20
2010,09,22,09,24,10.30
2010,09,22,09,25,10.30
2010,09,22,09,26,10.30
2010,09,22,09,27,10.30
2010,09,22,09,28,10.30
2010,09,22,09,29,10.40
2010,09,22,09,30,10.40
2010,09,22,09,31,10.40
2010,09,22,09,32,10.40
2010,09,22,09,33,10.40
2010,09,22,09,34,10.30
2010,09,22,09,35,10.30
2010,09,22,09,36,10.30
2010,09,22,09,37,10.30
2010,09,22,09,38,10.30
2010,09,22,09,39,10.30
2010,09,22,09,40,10.30
2010,09,22,09,41,10.40
2010,09,22,09,42,10.40
2010,09,22,09,43,10.40
2010,09,22,09,44,10.40
2010,09,22,09,45,10.40
2010,09,22,09,46,10.50
2010,09,22,09,47,10.60
2010,09,22,09,48,10.60
2010,09,22,09,49,10.60
2010,09,22,09,50,10.60
2010,09,22,09,51,10.70
2010,09,22,09,52,10.70
2010,09,22,09,53,10.70
2010,09,22,09,54,10.70
2010,09,22,09,55,10.70
2010,09,22,09,56,10.80
2010,09,22,09,57,10.80
2010,09,22,09,58,10.80
2010,09,22,09,59,10.90
2010,09,22,10,00,10.90
2010,09,22,10,01,10.90
2010,09,22,10,02,11.00
2010,09,22,10,03,11.00
2010,09,22,10,04,11.10
2010,09,22,10,05,11.20
2010,09,22,10,06,11.20
2010,09,22,10,07,11.30
2010,09,22,10,08,11.30
2010,09,22,10,09,11.40
2010,09,22,10,10,11.50
2010,09,22,10,11,11.50
2010,09,22,10,12,11.60
2010,09,22,10,13,11.60
2010,09,22,10,14,11.70
2010,09,22,10,15,11.70
2010,09,22,10,16,11.80
2010,09,22,10,17,11.90
2010,09,22,10,18,11.90
2010,09,22,10,19,11.90
2010,09,22,10,20,11.90
2010,09,22,10,21,11.90
2010,09,22,10,22,11.90
2010,09,22,10,23,11.90
2010,09,22,10,24,12.00
2010,09,22,10,25,12.00
2010,09,22,10,26,12.00
2010,09,22,10,27,12.10
2010,09,22,10,28,12.10
2010,09,22,10,29,12.10
2010,09,22,10,30,12.20
2010,09,22,10,31,12.20
2010,09,22,10,32,12.30
2010,09,22,10,33,12.40
2010,09,22,10,34,12.50
2010,09,22,10,35,12.60
2010,09,22,10,36,12.70
2010,09,22,10,37,12.70
2010,09,22,10,38,12.70
2010,09,22,10,39,12.70
2010,09,22,10,40,12.80
2010,09,22,10,41,12.80
2010,09,22,10,42,12.90
2010,09,22,10,43,13.00
2010,09,22,10,44,13.10
2010,09,22,10,45,13.20
2010,09,22,10,46,13.30
2010,09,22,10,47,13.30
2010,09,22,10,48,13.30
2010,09,22,10,49,13.30
2010,09,22,10,50,13.30
2010,09,22,10,51,13.30
2010,09,22,10,52,13.30
2010,09,22,10,53,13.20
2010,09,22,10,54,13.20
2010,09,22,10,55,13.20
2010,09,22,10,56,13.30
2010,09,22,10,57,13.30
2010,09,22,10,58,13.40
2010,09,22,10,59,13.40
2010,09,22,11,00,13.50
2010,09,22,11,01,13.60
2010,09,22,11,02,13.60
2010,09,22,11,03,13.70
2010,09,22,11,04,13.90
2010,09,22,11,05,14.00
2010,09,22,11,06,14.00
2010,09,22,11,07,14.00
2010,09,22,11,08,13.90
2010,09,22,11,09,13.90
2010,09,22,11,10,13.80
2010,09,22,11,11,13.80
2010,09,22,11,12,13.90
2010,09,22,11,13,14.00
2010,09,22,11,14,14.10
2010,09,22,11,15,14.10
2010,09,22,11,16,14.20
2010,09,22,11,17,14.20
2010,09,22,11,18,14.20
2010,09,22,11,19,14.20
2010,09,22,11,20,14.20
2010,09,22,11,21,14.30
2010,09,22,11,22,14.40
2010,09,22,11,23,14.40
2010,09,22,11,24,14.60
2010,09,22,11,25,14.60
2010,09,22,11,26,14.60
2010,09,22,11,27,14.60
2010,09,22,11,28,14.60
2010,09,22,11,29,14.50
2010,09,22,11,30,14.40
2010,09,22,11,31,14.40
2010,09,22,11,32,14.30
2010,09,22,11,33,14.20
2010,09,22,11,34,14.20
2010,09,22,11,35,14.10
2010,09,22,11,36,14.00
2010,09,22,11,37,14.00
2010,09,22,11,38,14.10
2010,09,22,11,39,14.10
2010,09,22,11,40,14.10
2010,09,22,11,41,14.00
2010,09,22,11,42,14.00
2010,09,22,11,43,14.00
2010,09,22,11,44,13.90
2010,09,22,11,45,14.00
2010,09,22,11,46,14.10
2010,09,22,11,47,14.10
2010,09,22,11,48,14.20
2010,09,22,11,49,14.20
2010,09,22,11,50,14.10
2010,09,22,11,51,14.00
2010,09,22,11,52,14.00
2010,09,22,11,53,14.10
2010,09,22,11,54,14.30
2010,09,22,11,55,14.30
2010,09,22,11,56,14.40
2010,09,22,11,57,14.50
2010,09,22,11,58,14.50
2010,09,22,11,59,14.60
2010,09,22,12,00,14.60
2010,09,22,12,01,14.60
2010,09,22,12,02,14.60
2010,09,22,12,03,14.60
2010,09,22,12,04,14.50
2010,09,22,12,05,14.50
2010,09,22,12,06,14.60
2010,09,22,12,07,14.60
2010,09,22,12,08,14.70
2010,09,22,12,09,14.80
2010,09,22,12,10,14.70
2010,09,22,12,11,14.80
2010,09,22,12,12,14.80
2010,09,22,12,13,14.80
2010,09,22,12,14,14.80
2010,09,22,12,15,14.80
2010,09,22,12,16,14.80
2010,09,22,12,17,14.90
2010,09,22,12,18,15.00
2010,09,22,12,19,15.00
2010,09,22,12,20,15.10
2010,09,22,12,21,15.20
2010,09,22,12,22,15.30
2010,09,22,12,23,15.40
2010,09,22,12,24,15.40
2010,09,22,12,25,15.40
2010,09,22,12,26,15.30
2010,09,22,12,27,15.20
2010,09,22,12,28,15.00
2010,09,22,12,29,15.00
2010,09,22,12,30,14.90
2010,09,22,12,31,14.80
2010,09,22,12,32,14.80
2010,09,22,12,33,14.80
2010,09,22,12,34,14.80
2010,09,22,12,35,14.90
2010,09,22,12,36,14.90
2010,09,22,12,37,15.00
2010,09,22,12,38,15.00
2010,09,22,12,39,14.90
2010,09,22,12,40,15.00
2010,09,22,12,41,15.00
2010,09,22,12,42,15.00
2010,09,22,12,43,15.00
2010,09,22,12,44,15.10
2010,09,22,12,45,15.20
2010,09,22,12,46,15.30
2010,09,22,12,47,15.40
2010,09,22,12,48,15.40
2010,09,22,12,49,15.40
2010,09,22,12,50,15.30
2010,09,22,12,51,15.30
2010,09,22,12,52,15.30
2010,09,22,12,53,15.40
2010,09,22,12,54,15.50
2010,09,22,12,55,15.60
2010,09,22,12,56,15.60
2010,09,22,12,57,15.60
2010,09,22,12,58,15.60
2010,09,22,12,59,15.70
2010,09,22,13,00,15.70
2010,09,22,13,01,15.70
2010,09,22,13,02,15.80
2010,09,22,13,03,15.80
2010,09,22,13,04,15.90
2010,09,22,13,05,16.00
2010,09,22,13,06,16.10
2010,09,22,13,07,16.10
2010,09,22,13,08,16.10
2010,09,22,13,09,16.10
2010,09,22,13,10,16.00
2010,09,22,13,11,16.00
2010,09,22,13,12,16.10
2010,09,22,13,13,16.20
2010,09,22,13,14,16.20
2010,09,22,13,15,16.30
2010,09,22,13,16,16.30
2010,09,22,13,17,16.30
2010,09,22,13,18,16.30
2010,09,22,13,19,16.30
2010,09,22,13,20,16.20
2010,09,22,13,21,16.20
2010,09,22,13,22,16.20
2010,09,22,13,23,16.30
2010,09,22,13,24,16.30
2010,09,22,13,25,16.30
2010,09,22,13,26,16.20
2010,09,22,13,27,16.10
2010,09,22,13,28,16.00
2010,09,22,13,29,15.90
2010,09,22,13,30,15.80
2010,09,22,13,31,15.80
2010,09,22,13,32,15.80
2010,09,22,13,33,15.80
2010,09,22,13,34,15.80
2010,09,22,13,35,15.80
2010,09,22,13,36,15.70
2010,09,22,13,37,15.60
2010,09,22,13,38,15.50
2010,09,22,13,39,15.40
2010,09,22,13,40,15.40
2010,09,22,13,41,15.40
2010,09,22,13,42,15.50
2010,09,22,13,43,15.50
2010,09,22,13,44,15.50
2010,09,22,13,45,15.60
2010,09,22,13,46,15.70
2010,09,22,13,47,15.80
2010,09,22,13,48,15.90
2010,09,22,13,49,16.00
2010,09,22,13,50,16.10
2010,09,22,13,51,16.20
2010,09,22,13,52,16.30
2010,09,22,13,53,16.30
2010,09,22,13,54,16.40
2010,09,22,13,55,16.40
2010,09,22,13,56,16.40
2010,09,22,13,57,16.50
2010,09,22,13,58,16.50
2010,09,22,13,59,16.50
2010,09,22,14,00,16.60
2010,09,22,14,01,16.60
2010,09,22,14,02,16.70
2010,09,22,14,03,16.60
2010,09,22,14,04,16.60
2010,09,22,14,05,16.50
2010,09,22,14,06,16.50
2010,09,22,14,07,16.60
2010,09,22,14,08,16.60
2010,09,22,14,09,16.60
2010,09,22,14,10,16.50
2010,09,22,14,11,16.40
2010,09,22,14,12,16.30
2010,09,22,14,13,16.30
2010,09,22,14,14,16.20
2010,09,22,14,15,16.20
2010,09,22,14,16,16.20
2010,09,22,14,17,16.20
2010,09,22,14,18,16.10
2010,09,22,14,19,16.10
2010,09,22,14,20,16.10
2010,09,22,14,21,16.10
2010,09,22,14,22,16.10
2010,09,22,14,23,16.10
2010,09,22,14,24,16.00
2010,09,22,14,25,15.90
2010,09,22,14,26,15.90
2010,09,22,14,27,15.90
2010,09,22,14,28,15.90
2010,09,22,14,29,15.90
2010,09,22,14,30,15.90
2010,09,22,14,31,16.00
2010,09,22,14,32,16.00
2010,09,22,14,33,16.00
2010,09,22,14,34,16.00
2010,09,22,14,35,16.00
2010,09,22,14,36,16.10
2010,09,22,14,37,16.10
2010,09,22,14,38,16.20
2010,09,22,14,39,16.30
2010,09,22,14,40,16.40
2010,09,22,14,41,16.50
2010,09,22,14,42,16.50
2010,09,22,14,43,16.40
2010,09,22,14,44,16.40
2010,09,22,14,45,16.40
2010,09,22,14,46,16.50
2010,09,22,14,47,16.70
2010,09,22,14,48,16.80
2010,09,22,14,49,16.90
2010,09,22,14,50,16.80
2010,09,22,14,51,16.70
2010,09,22,14,52,16.50
2010,09,22,14,53,16.40
2010,09,22,14,54,16.30
2010,09,22,14,55,16.30
2010,09,22,14,56,16.40
2010,09,22,14,57,16.50
2010,09,22,14,58,16.50
2010,09,22,14,59,16.60
2010,09,22,15,00,16.60
2010,09,22,15,01,16.70
2010,09,22,15,02,16.70
2010,09,22,15,03,16.60
2010,09,22,15,04,16.60
2010,09,22,15,05,16.50
2010,09,22,15,06,16.50
2010,09,22,15,07,16.40
2010,09,22,15,08,16.40
2010,09,22,15,09,16.40
2010,09,22,15,10,16.50
2010,09,22,15,11,16.50
2010,09,22,15,12,16.60
2010,09,22,15,13,16.70
2010,09,22,15,14,16.70
2010,09,22,15,15,16.70
2010,09,22,15,16,16.70
2010,09,22,15,17,16.80
2010,09,22,15,18,16.80
2010,09,22,15,19,16.80
2010,09,22,15,20,16.80
2010,09,22,15,21,16.90
2010,09,22,15,22,16.90
2010,09,22,15,23,16.80
2010,09,22,15,24,16.70
2010,09,22,15,25,16.70
2010,09,22,15,26,16.70
2010,09,22,15,27,16.70
2010,09,22,15,28,16.70
2010,09,22,15,29,16.70
2010,09,22,15,30,16.70
2010,09,22,15,31,16.70
2010,09,22,15,32,16.80
2010,09,22,15,33,16.80
2010,09,22,15,34,16.90
2010,09,22,15,35,16.90
2010,09,22,15,36,16.90
2010,09,22,15,37,17.00
2010,09,22,15,38,17.10
2010,09,22,15,39,17.00
2010,09,22,15,40,17.00
2010,09,22,15,41,16.90
2010,09,22,15,42,16.90
2010,09,22,15,43,16.90
2010,09,22,15,44,16.90
2010,09,22,15,45,16.90
2010,09,22,15,46,16.90
2010,09,22,15,47,16.90
2010,09,22,15,48,16.90
2010,09,22,15,49,16.90
2010,09,22,15,50,16.80
2010,09,22,15,51,16.80
2010,09,22,15,52,16.80
2010,09,22,15,53,16.70
2010,09,22,15,54,16.60
2010,09,22,15,55,16.50
2010,09,22,15,56,16.50
2010,09,22,15,57,16.40
2010,09,22,15,58,16.40
2010,09,22,15,59,16.40
2010,09,22,16,00,16.30
2010,09,22,16,01,16.30
2010,09,22,16,02,16.20
2010,09,22,16,03,16.20
2010,09,22,16,04,16.20
2010,09,22,16,05,16.20
2010,09,22,16,06,16.30
2010,09,22,16,07,16.40
2010,09,22,16,08,16.50
2010,09,22,16,09,16.60
2010,09,22,16,10,16.70
2010,09,22,16,11,16.70
2010,09,22,16,12,16.80
2010,09,22,16,13,16.80
2010,09,22,16,14,16.90
2010,09,22,16,15,16.90
2010,09,22,16,16,16.80
2010,09,22,16,17,16.70
2010,09,22,16,18,16.70
2010,09,22,16,19,16.60
2010,09,22,16,20,16.60
2010,09,22,16,21,16.60
2010,09,22,16,22,16.60
2010,09,22,16,23,16.60
2010,09,22,16,24,16.60
2010,09,22,16,25,16.60
2010,09,22,16,26,16.60
2010,09,22,16,27,16.60
2010,09,22,16,28,16.60
2010,09,22,16,29,16.60
2010,09,22,16,30,16.60
2010,09,22,16,31,16.60
2010,09,22,16,32,16.60
2010,09,22,16,33,16.50
2010,09,22,16,34,16.50
2010,09,22,16,35,16.50
2010,09,22,16,36,16.50
2010,09,22,16,37,16.50
2010,09,22,16,38,16.40
2010,09,22,16,39,16.40
2010,09,22,16,40,16.40
2010,09,22,16,41,16.30
2010,09,22,16,42,16.30
2010,09,22,16,43,16.30
2010,09,22,16,44,16.30
2010,09,22,16,45,16.30
2010,09,22,16,46,16.30
2010,09,22,16,47,16.30
2010,09,22,16,48,16.20
2010,09,22,16,49,16.20
2010,09,22,16,50,16.20
2010,09,22,16,51,16.20
2010,09,22,16,52,16.20
2010,09,22,16,53,16.10
2010,09,22,16,54,16.10
2010,09,22,16,55,16.00
2010,09,22,16,56,16.00
2010,09,22,16,57,16.00
2010,09,22,16,58,16.00
2010,09,22,16,59,16.00
2010,09,22,17,00,16.00
2010,09,22,17,01,15.90
2010,09,22,17,02,15.90
2010,09,22,17,03,15.90
2010,09,22,17,04,15.90
2010,09,22,17,05,15.80
2010,09,22,17,06,15.80
2010,09,22,17,07,15.80
2010,09,22,17,08,15.80
2010,09,22,17,09,15.70
2010,09,22,17,10,15.70
2010,09,22,17,11,15.70
2010,09,22,17,12,15.70
2010,09,22,17,13,15.70
2010,09,22,17,14,15.80
2010,09,22,17,15,15.80
2010,09,22,17,16,15.80
2010,09,22,17,17,15.80
2010,09,22,17,18,15.80
2010,09,22,17,19,15.80
2010,09,22,17,20,15.80
2010,09,22,17,21,15.80
2010,09,22,17,22,15.80
2010,09,22,17,23,15.80
2010,09,22,17,24,15.80
2010,09,22,17,25,15.70
2010,09,22,17,26,15.70
2010,09,22,17,27,15.70
2010,09,22,17,28,15.70
2010,09,22,17,29,15.70
2010,09,22,17,30,15.70
2010,09,22,17,31,15.70
2010,09,22,17,32,15.70
2010,09,22,17,33,15.70
2010,09,22,17,34,15.70
2010,09,22,17,35,15.70
2010,09,22,17,36,15.70
2010,09,22,17,37,15.70
2010,09,22,17,38,15.60
2010,09,22,17,39,15.60
2010,09,22,17,40,15.60
2010,09,22,17,41,15.60
2010,09,22,17,42,15.60
2010,09,22,17,43,15.50